TimeEST,TemperatureF,Dew PointF,Humidity,Sea Level PressureIn,VisibilityMPH,Wind Direction,Wind SpeedMPH,Gust SpeedMPH,PrecipitationIn,Events,Conditions,WindDirDegrees,DateUTC
12:53 AM,28.0,25.0,88,30.18,3.0,Calm,Calm,-,N/A,,Clear,0,2012-11-05 05:53:00
1:53 AM,27.0,25.0,92,30.18,5.0,Calm,Calm,-,N/A,,Clear,0,2012-11-05 06:53:00
2:53 AM,26.1,23.0,88,30.18,3.0,Calm,Calm,-,N/A,,Clear,0,2012-11-05 07:53:00
3:53 AM,24.1,21.9,91,30.17,4.0,Calm,Calm,-,N/A,,Clear,0,2012-11-05 08:53:00
4:53 AM,25.0,21.9,88,30.18,6.0,Calm,Calm,-,N/A,,Clear,0,2012-11-05 09:53:00
5:53 AM,23.0,21.0,92,30.18,6.0,Calm,Calm,-,N/A,,Clear,0,2012-11-05 10:53:00
7:53 AM,26.1,24.1,92,30.18,8.0,Calm,Calm,-,N/A,,Clear,0,2012-11-05 12:53:00
8:53 AM,32.0,28.9,88,30.18,6.0,Calm,Calm,-,N/A,,Clear,0,2012-11-05 13:53:00
9:53 AM,39.0,30.0,70,30.17,10.0,ESE,5.8,-,N/A,,Clear,110,2012-11-05 14:53:00
10:53 AM,42.1,28.9,60,30.17,10.0,ESE,6.9,-,N/A,,Clear,110,2012-11-05 15:53:00
11:53 AM,44.1,28.9,55,30.17,10.0,ESE,6.9,-,N/A,,Clear,110,2012-11-05 16:53:00
12:53 PM,45.0,28.9,53,30.13,10.0,Calm,Calm,-,N/A,,Clear,0,2012-11-05 17:53:00
1:53 PM,48.0,28.9,48,30.11,10.0,East,6.9,-,N/A,,Clear,80,2012-11-05 18:53:00
2:53 PM,48.9,28.0,44,30.09,10.0,NE,4.6,-,N/A,,Clear,40,2012-11-05 19:53:00
3:53 PM,46.0,26.1,46,30.09,10.0,East,4.6,-,N/A,,Clear,80,2012-11-05 20:53:00
4:53 PM,46.9,28.0,48,30.09,10.0,North,4.6,-,N/A,,Clear,10,2012-11-05 21:53:00
5:53 PM,43.0,27.0,53,30.11,10.0,ENE,3.5,-,N/A,,Clear,60,2012-11-05 22:53:00
6:53 PM,39.0,27.0,62,30.12,10.0,NE,6.9,-,N/A,,Clear,40,2012-11-05 23:53:00
7:53 PM,36.0,27.0,70,30.12,10.0,NE,3.5,-,N/A,,Clear,50,2012-11-06 00:53:00
8:53 PM,30.9,26.1,82,30.13,10.0,Calm,Calm,-,N/A,,Clear,0,2012-11-06 01:53:00
9:53 PM,30.0,26.1,85,30.12,10.0,Calm,Calm,-,N/A,,Clear,0,2012-11-06 02:53:00
10:53 PM,28.9,26.1,89,30.10,10.0,Calm,Calm,-,N/A,,Clear,0,2012-11-06 03:53:00
11:53 PM,30.9,26.1,82,30.09,10.0,Calm,Calm,-,N/A,,Clear,0,2012-11-06 04:53:00